Weather in Gerpegezh

Russia / The Kabardino-Balkar Republic     43°22′15″N   43°39′08″E
temp.,
°C
wind,
m/s
gust,
m/s
humid.,
%
clouds,
%
prec.,
mm/h
press.,
hPa
HPBL,
m
4 july, mon
mon400:00+14sw356946 0.1 101786
03:00+13sw346836 0.1 101768
06:00+14sw34684 0.0 101871
09:00+20ne22428 0.0 10171964
12:00+21ne424528 0.0 10161666
15:00+22ne224359 0.0 10151913
18:00+19se126581 0.0 101684
21:00+16sw336643 0.0 101743
5 july, tue
tue500:00+14sw33690 0.0 101747
03:00+14sw34630 0.0 101655
06:00+15sw34670 0.0 101664
09:00+22nne11450 0.0 10161429
12:00+24nne33394 0.0 10162110
15:00+24ne333912 0.0 10151964
18:00+22se116037 0.0 1015167
21:00+18sw336366 0.0 101743
6 july, wed
wed600:00+18w226084 0.0 101627
03:00+15wsw226926 0.0 101728
06:00+15wsw22680 0.0 101748
09:00+20ne22540 0.0 1016884
12:00+23ene445338 0.0 10151728
15:00+22ese345583 0.1 10141509
18:00+21ssw236685 0.0 1014261
21:00+18s01685 0.0 101533
7 july, thu
thu700:00+13wsw22830 0.0 101629
03:00+13wsw21800 0.0 101516
06:00+15w11740 0.0 101556
09:00+19ne31630 0.0 1014677
12:00+22ene33577 0.0 10141199
15:00+23e235543 0.0 10131462
18:00+22se12647 0.1 1012775
21:00+18e117891 0.1 101411
8 july, fri
fri800:00+14w1187100 0.0 101312
03:00+13w118898 0.0 101311
06:00+15nw018124 0.0 101374
09:00+20ne31634 0.0 1012646
12:00+23ne325711 0.0 10121121
15:00+24ene325512 0.1 10111370
18:00+22e116866 0.1 1011432
21:00+17sw328380 0.1 101235